Simultaneous Nadir Overpasses (SNOs) Predictions

Prediction of SNOs between METOP-B and TERRA Satellite Orbit:

Table of predicted SNOs for the next 14.0 days since TLE Epoch: 8/28/2021
Index Date (METOP-B) Time (METOP-B) Lat,Lon (METOP-B) SZA (METOP-B ) Date (TERRA) Time (TERRA) Lat,Lon (TERRA) SZA (TERRA ) Distance(km) Time Diff (sec)
1 08/28/2021 17:55:42 81.25, -44.28 74.34 08/28/2021 17:56:51 81.25, -44.39 74.36 1.80 69
2 08/28/2021 18:46:22 -81.25, 123.22 105.63 08/28/2021 18:46:18 -81.25, 123.14 105.65 1.67 4
3 08/31/2021 13:30:05 81.25, 21.94 75.35 08/31/2021 13:31:03 81.24, 21.91 75.37 0.64 58
4 08/31/2021 14:20:44 -81.26,-170.14 104.57 08/31/2021 14:20:29 -81.26,-170.17 104.58 0.53 15
5 09/03/2021 09:04:26 81.25, 88.54 76.41 09/03/2021 09:05:13 81.25, 88.52 76.44 0.48 47
6 09/03/2021 09:55:06 -81.26,-103.90 103.55 09/03/2021 09:54:40 -81.25,-103.90 103.57 0.51 26
7 09/06/2021 04:38:49 81.25, 154.72 77.45 09/06/2021 04:39:25 81.24, 154.70 77.46 0.86 36
8 09/06/2021 05:29:28 -81.26, -37.29 102.46 09/06/2021 05:28:51 -81.26, -37.32 102.48 0.50 37
9 09/09/2021 00:13:11 81.25,-138.72 78.54 09/09/2021 00:13:36 81.24,-138.80 78.54 1.54 25



Historial Predications of SNOs between METOP-B and TERRA
